Weather History for KMKS - July, 2013

Change the Weather History Date:

Sunday, July 21, 2013

  Actual Average (KCHS) Record (KCHS)
Temperature  
Mean Temperature 80 °F 82 °F  
Max Temperature 87 °F 91 °F 101 °F (1977)
Min Temperature 73 °F 73 °F 64 °F (1957)
Degree Days  
Heating Degree Days 0 0  
Month to date heating degree days 0  
Since 1 June heating degree days 1  
Since 1 July heating degree days 0  
Cooling Degree Days 15 17  
Month to date cooling degree days 354  
Year to date cooling degree days 1137  
Since 1 June cooling degree days 775  
Growing Degree Days 30 (Base 50)    
Moisture  
Dew Point 76 °F    
Average Humidity 91    
Maximum Humidity 100    
Minimum Humidity 70    
Precipitation  
Precipitation 0.25 in 0.21 in 2.07 in (1969)
Month to date precipitation 4.46  
Year to date precipitation 26.42  
Sea Level Pressure  
Sea Level Pressure 30.01 in    
Wind  
Wind Speed 5 mph (SW)    
Max Wind Speed 15 mph    
Max Gust Speed 22 mph    
Visibility 9 miles    
Events Rain , Thunderstorm    
T = Trace of Precipitation, MM = Missing Value Source: NWS Daily Summary

Daily Weather History Graph

Daily Weather History Graph

Search for Another Location

Airport or City:

Trip Planner

Search our weather history database for the weather conditions in past years. The results will help you decide how hot, cold, wet, or windy it might be!

Date:

Astronomy

Jul. 21, 2013 Rise Set
Actual Time 6:25 AM EDT 8:26 PM EDT
Civil Twilight 5:58 AM EDT 8:54 PM EDT
Nautical Twilight 5:24 AM EDT 9:28 PM EDT
Astronomical Twilight 4:48 AM EDT 10:04 PM EDT
Moon 7:25 PM EDT (7/21) 5:08 AM EDT (7/21)
Length of Visible Light 14h 56m
Length of Day
14h 01m
Waxing Gibbous, 98% of the Moon is Illuminated
Jul 21
Waxing Gibbous
Jul 22
Full
Jul 29
Last Quarter
Aug 6
New
Aug 14
First Quarter

Hourly Weather History & Observations

Time (EDT) Temp. Heat Index Dew Point Humidity Pressure Visibility Wind Dir Wind Speed Gust Speed Precip Events Conditions
12:15 AM 77.0 °F - 75.2 °F 94% 30.05 in 10.0 mi SW 4.6 mph - N/A   Overcast
12:35 AM 75.2 °F - 75.2 °F 100% 30.05 in 10.0 mi SW 4.6 mph - N/A   Overcast
12:55 AM 75.2 °F - 75.2 °F 100% 30.05 in 10.0 mi SW 4.6 mph - N/A   Mostly Cloudy
1:15 AM 75.2 °F - 75.2 °F 100% 30.04 in 10.0 mi SW 5.8 mph - N/A   Mostly Cloudy
1:35 AM 75.2 °F - 73.4 °F 94% 30.04 in 10.0 mi SW 5.8 mph - N/A   Mostly Cloudy
1:55 AM 75.2 °F - 73.4 °F 94% 30.03 in 7.0 mi WSW 4.6 mph - N/A   Scattered Clouds
2:15 AM 75.2 °F - 73.4 °F 94% 30.03 in 10.0 mi SW 4.6 mph - N/A   Scattered Clouds
2:35 AM 75.2 °F - 73.4 °F 94% 30.03 in 10.0 mi WSW 3.5 mph - N/A   Scattered Clouds
2:55 AM 75.2 °F - 73.4 °F 94% 30.03 in 10.0 mi SW 5.8 mph - N/A   Clear
3:15 AM 75.2 °F - 73.4 °F 94% 30.03 in 10.0 mi SW 8.1 mph - N/A   Mostly Cloudy
3:35 AM 75.2 °F - 73.4 °F 94% 30.02 in 10.0 mi SW 8.1 mph - N/A   Overcast
3:55 AM 75.2 °F - 73.4 °F 94% 30.02 in 10.0 mi WSW 6.9 mph - N/A   Overcast
4:15 AM 75.2 °F - 73.4 °F 94% 30.01 in 10.0 mi WSW 3.5 mph - N/A   Mostly Cloudy
4:35 AM 73.4 °F - 73.4 °F 100% 30.01 in 10.0 mi WSW 4.6 mph - N/A   Mostly Cloudy
4:55 AM 73.4 °F - 73.4 °F 100% 30.01 in 7.0 mi Calm Calm - N/A   Mostly Cloudy
5:15 AM 73.4 °F - 73.4 °F 100% 30.01 in 7.0 mi SW 6.9 mph - N/A   Overcast
5:35 AM 75.2 °F - 73.4 °F 94% 30.00 in 10.0 mi WSW 5.8 mph - N/A   Overcast
5:55 AM 75.2 °F - 73.4 °F 94% 30.00 in 10.0 mi WSW 4.6 mph - N/A   Overcast
6:15 AM 75.2 °F - 73.4 °F 94% 30.01 in 10.0 mi SW 4.6 mph - N/A   Overcast
6:35 AM 75.2 °F - 73.4 °F 94% 30.02 in 10.0 mi SW 4.6 mph - N/A   Overcast
6:55 AM 75.2 °F - 73.4 °F 94% 30.02 in 10.0 mi SW 5.8 mph - N/A   Overcast
7:15 AM 75.2 °F - 73.4 °F 94% 30.02 in 10.0 mi WSW 5.8 mph - N/A   Overcast
7:35 AM 75.2 °F - 73.4 °F 94% 30.03 in 10.0 mi SW 5.8 mph - N/A   Overcast
7:55 AM 75.2 °F - 75.2 °F 100% 30.03 in 10.0 mi SW 6.9 mph - N/A   Overcast
8:15 AM 77.0 °F - 75.2 °F 94% 30.03 in 10.0 mi SW 8.1 mph - N/A   Overcast
8:35 AM 77.0 °F - 75.2 °F 94% 30.04 in 7.0 mi SW 5.8 mph - N/A   Overcast
8:55 AM 77.0 °F - 75.2 °F 94% 30.05 in 10.0 mi WSW 6.9 mph - N/A   Overcast
9:15 AM 77.0 °F - 75.2 °F 94% 30.05 in 10.0 mi SW 8.1 mph - N/A   Overcast
9:35 AM 78.8 °F - 75.2 °F 89% 30.05 in 10.0 mi SW 6.9 mph - N/A   Overcast
9:55 AM 78.8 °F - 75.2 °F 89% 30.05 in 10.0 mi SW 10.4 mph - N/A   Overcast
10:15 AM 78.8 °F - 75.2 °F 89% 30.06 in 7.0 mi SW 6.9 mph - N/A   Overcast
10:35 AM 80.6 °F 86.2 °F 75.2 °F 84% 30.06 in 10.0 mi SW 6.9 mph - N/A   Overcast
10:55 AM 78.8 °F - 75.2 °F 89% 30.05 in 10.0 mi SW 4.6 mph - N/A   Overcast
11:15 AM 78.8 °F - 75.2 °F 89% 30.06 in 10.0 mi SW 6.9 mph - N/A   Overcast
11:35 AM 78.8 °F - 75.2 °F 89% 30.06 in 10.0 mi SW 4.6 mph - N/A   Overcast
11:55 AM 78.8 °F - 75.2 °F 89% 30.06 in 10.0 mi SW 4.6 mph - N/A   Overcast
12:15 PM 80.6 °F 86.2 °F 75.2 °F 84% 30.06 in 10.0 mi SW 5.8 mph - N/A   Overcast
12:35 PM 80.6 °F 86.2 °F 75.2 °F 84% 30.05 in 7.0 mi SW 8.1 mph - N/A   Overcast
12:55 PM 80.6 °F 86.2 °F 75.2 °F 84% 30.05 in 10.0 mi WSW 6.9 mph - N/A   Overcast
1:15 PM 82.4 °F 90.9 °F 77.0 °F 84% 30.04 in 7.0 mi WSW 4.6 mph - N/A   Mostly Cloudy
2:15 PM 86.0 °F 96.9 °F 77.0 °F 74% 30.01 in 10.0 mi SW 6.9 mph - N/A   Mostly Cloudy
2:35 PM 86.0 °F 96.9 °F 77.0 °F 74% 30.00 in 10.0 mi SW 5.8 mph - N/A   Scattered Clouds
2:55 PM 87.8 °F 99.7 °F 77.0 °F 70% 29.99 in 10.0 mi Calm Calm - N/A   Mostly Cloudy
3:15 PM 87.8 °F 99.7 °F 77.0 °F 70% 29.98 in 10.0 mi SW 5.8 mph - N/A   Mostly Cloudy
3:35 PM 86.0 °F 96.9 °F 77.0 °F 74% 29.98 in 10.0 mi SSW 3.5 mph - N/A   Mostly Cloudy
3:55 PM 87.8 °F 99.7 °F 77.0 °F 70% 29.97 in 7.0 mi SSW 3.5 mph - N/A   Mostly Cloudy
4:15 PM 82.4 °F 90.9 °F 77.0 °F 84% 29.97 in 7.0 mi Calm Calm - 0.01 in Rain Rain
4:35 PM 84.2 °F 96.1 °F 78.8 °F 84% 29.96 in 10.0 mi Calm Calm - 0.01 in   Mostly Cloudy
4:55 PM 86.0 °F 96.9 °F 77.0 °F 74% 29.96 in 10.0 mi South 3.5 mph - 0.01 in   Scattered Clouds
5:15 PM 84.2 °F 94.1 °F 77.0 °F 79% 29.96 in 7.0 mi SSE 8.1 mph 16.1 mph N/A   Mostly Cloudy
5:35 PM 82.4 °F 90.9 °F 77.0 °F 84% 29.95 in 10.0 mi South 5.8 mph - N/A   Overcast
5:55 PM 82.4 °F 92.4 °F 78.8 °F 89% 29.95 in 7.0 mi SSW 8.1 mph - N/A   Mostly Cloudy
6:15 PM 82.4 °F 92.4 °F 78.8 °F 89% 29.96 in 10.0 mi South 4.6 mph - N/A Thunderstorm Thunderstorm
6:35 PM 78.8 °F - 77.0 °F 94% 29.97 in 10.0 mi SSW 15.0 mph 21.9 mph N/A Thunderstorm Thunderstorm
6:55 PM 77.0 °F - 75.2 °F 94% 29.98 in 1.2 mi SW 9.2 mph - 0.13 in Rain , Thunderstorm Heavy Thunderstorms and Rain
7:15 PM 77.0 °F - 77.0 °F 100% 29.97 in 4.0 mi South 4.6 mph - 0.09 in Rain , Thunderstorm Rain
7:35 PM 78.8 °F - 77.0 °F 94% 29.98 in 7.0 mi South 3.5 mph - 0.11 in Rain Light Rain
7:55 PM 78.8 °F - 77.0 °F 94% 29.98 in 7.0 mi South 4.6 mph - 0.11 in   Scattered Clouds
8:15 PM 78.8 °F - 77.0 °F 94% 29.98 in 7.0 mi Calm Calm - N/A Thunderstorm Scattered Clouds
8:35 PM 78.8 °F - 77.0 °F 94% 29.98 in 10.0 mi SSE 3.5 mph - N/A Thunderstorm Mostly Cloudy
8:55 PM 78.8 °F - 78.8 °F 100% 29.99 in 7.0 mi Calm Calm - N/A Thunderstorm Mostly Cloudy
9:15 PM 78.8 °F - 78.8 °F 100% 29.99 in 10.0 mi SSW 4.6 mph - N/A Thunderstorm Clear
9:35 PM 78.8 °F - 78.8 °F 100% 29.99 in 10.0 mi Calm Calm - N/A   Scattered Clouds
9:55 PM 77.0 °F - 77.0 °F 100% 29.99 in 7.0 mi SW 4.6 mph - N/A   Scattered Clouds
10:15 PM 77.0 °F - 77.0 °F 100% 30.00 in 7.0 mi SW 5.8 mph - N/A   Clear
10:35 PM 77.0 °F - 77.0 °F 100% 30.00 in 10.0 mi SSW 4.6 mph - N/A   Clear
10:55 PM 77.0 °F - 75.2 °F 94% 30.00 in 7.0 mi Calm Calm - N/A   Clear
11:15 PM 77.0 °F - 75.2 °F 94% 30.00 in 10.0 mi SW 4.6 mph - N/A   Clear
11:35 PM 75.2 °F - 75.2 °F 100% 30.02 in 10.0 mi SW 5.8 mph - N/A   Clear
11:55 PM 75.2 °F - 75.2 °F 100% 30.02 in 10.0 mi SW 5.8 mph - N/A   Scattered Clouds